Location: *
(49.3500°N, 12.6000°E)
Time: 09:18:32
(UTC+00:00)

STARLINK-77 - Pass Details

Date: 18 October 2019
Orbit: 548 x 551 km, 53.0° (Epoch: 19 November)

Event Time Altitude Azimuth Distance (km) Brightness Sun altitude
Rises 18:00:43 0° 270° (W) 2,716 8.9 -18.1°
Reaches altitude 10° 18:02:59 10° 275° (W) 1,823 7.6 -18.4°
Maximum altitude 18:07:03 52° 353° (N) 687 4.1 -19.1°
Enters shadow 18:08:19 37° 46° (NE) 868 4.3 -19.3°
